Tracking 29892 objects as of 21-Nov-2024
HD Live streaming from Space Station
objects crossing your sky now

SL-14 R/B

Track SL-14 R/B now!
10-day predictions


NORAD ID: 25369
Int'l Code: 1998-036G
Perigee: 1,348.6 km
Apogee: 1,897.1 km
Inclination: 82.6 °
Period: 118.5 minutes
Semi major axis: 7993 km
RCS: 6.5125 m2 (large)
Launch date: June 15, 1998
Source: Commonwealth of Independent States (former USSR) (CIS)
Launch site: PLESETSK MISSILE AND SPACE COMPLEX (PKMTR)

Note: This is a ROCKET BODY
Your satellite tracking list
Your tracking list is empty




NASA's NSSDC Master Catalog

Two Line Element Set (TLE):
1 25369U 98036G   24325.25656593  .00000072  00000-0  55515-3 0  9991
2 25369  82.5945  39.7546 0343073 245.0011 128.6392 12.14692710171886
Source of the keplerian elements: AFSPC